Namest Nad Oslav, Czech Republic

9:10 AM CEST on April 25, 2018 (GMT +0200)
Namest

Weather History for LKNA - February, 2013

Change the Weather History Date:

Monday, February 4, 2013

  Actual Average Record
Temperature  
Mean Temperature 34 °F -  
Max Temperature 37 °F - - ()
Min Temperature 30 °F - - ()
Degree Days  
Heating Degree Days 32    
Moisture  
Dew Point 31 °F    
Average Humidity 94    
Maximum Humidity 100    
Minimum Humidity 75    
Precipitation  
Precipitation 0.00 in - - ()
Sea Level Pressure  
Sea Level Pressure 29.76 in    
Wind  
Wind Speed 9 mph ()    
Max Wind Speed 15 mph    
Max Gust Speed -    
Visibility 4.0 miles    
Events Rain , Snow    
T = Trace of Precipitation, MM = Missing Value Source: Averaged Metar Reports

Daily Weather History Graph

Daily Weather History Graph

Search for Another Location

Airport or City:

Astronomy

Feb. 04, 2013 Rise Set
Actual Time 7:22 AM CET 4:57 PM CET
Civil Twilight 6:48 AM CET 5:31 PM CET
Nautical Twilight 6:10 AM CET 6:09 PM CET
Astronomical Twilight 5:33 AM CET 6:46 PM CET
Moon 1:43 AM CET (2/4) 10:59 AM CET (2/4)
Length of Visible Light 10h 42m
Length of Day
9h 35m
Last Quarter, 40% of the Moon is Illuminated
Feb 4
Last Quarter
Feb 10
New
Feb 17
First Quarter
Feb 25
Full
Mar 4
Last Quarter

Hourly Weather History & Observations

Time (CET) Temp. Windchill Dew Point Humidity Pressure Visibility Wind Dir Wind Speed Gust Speed Precip Events Conditions
12:00 AM 32.0 °F 24.2 °F 24.8 °F 75% 29.83 in 6.2 mi WSW 9.2 mph - N/A   Mostly Cloudy
1:00 AM 30.2 °F 21.3 °F 28.4 °F 93% 29.80 in 6.2 mi SW 10.4 mph - N/A Snow Light Snow
2:00 AM 30.2 °F 21.9 °F 28.4 °F 93% 29.77 in 6.2 mi SSW 9.2 mph - N/A Snow Light Snow
2:24 AM 30.2 °F 21.3 °F 28.4 °F 93% 29.77 in 5.0 mi SW 10.4 mph - N/A Snow Light Snow
3:00 AM 30.2 °F 21.3 °F 28.4 °F 93% 29.74 in 0.9 mi SW 10.4 mph - N/A Snow Light Snow
4:00 AM 30.2 °F 21.9 °F 30.2 °F 100% 29.74 in 0.9 mi WSW 9.2 mph - N/A Snow Light Snow
5:00 AM 32.0 °F 24.2 °F 30.2 °F 93% 29.74 in 6.2 mi West 9.2 mph - N/A   Overcast
6:00 AM 32.0 °F 23.6 °F 30.2 °F 93% 29.74 in 6.2 mi West 10.4 mph - N/A   Overcast
6:32 AM 30.2 °F 21.9 °F 30.2 °F 100% 29.74 in 1.2 mi West 9.2 mph - N/A Snow Light Snow
6:37 AM 30.2 °F 21.3 °F 30.2 °F 100% 29.74 in 0.6 mi West 10.4 mph - N/A Snow Snow
7:00 AM 30.2 °F 23.4 °F 30.2 °F 100% 29.74 in 1.9 mi West 6.9 mph - N/A Snow Light Snow
8:00 AM 32.0 °F 24.2 °F 30.2 °F 93% 29.77 in 6.2 mi West 9.2 mph - N/A Snow Light Snow
9:00 AM 32.0 °F 23.6 °F 30.2 °F 93% 29.77 in 6.2 mi West 10.4 mph - N/A   Mostly Cloudy
10:00 AM 33.8 °F 25.3 °F 30.2 °F 87% 29.80 in 6.2 mi West 11.5 mph - N/A   Scattered Clouds
12:00 PM 33.8 °F 27.0 °F 32.0 °F 93% 29.80 in 6.2 mi WSW 8.1 mph - N/A Snow Light Snow
1:00 PM 33.8 °F 26.4 °F 32.0 °F 93% 29.77 in 3.7 mi WSW 9.2 mph - N/A Snow Light Snow
2:00 PM 33.8 °F 27.0 °F 32.0 °F 93% 29.74 in 3.1 mi SW 8.1 mph - N/A Snow Light Snow
3:00 PM 33.8 °F 25.8 °F 32.0 °F 93% 29.74 in 3.1 mi SW 10.4 mph - N/A Rain Rain
3:11 PM 33.8 °F 25.8 °F 32.0 °F 93% 29.74 in 0.9 mi SW 10.4 mph - N/A Rain Rain
3:33 PM 32.0 °F 23.6 °F 32.0 °F 100% 29.74 in 0.6 mi SW 10.4 mph - N/A Rain Rain
4:00 PM 32.0 °F 23.6 °F 32.0 °F 100% 29.74 in 1.1 mi SW 10.4 mph - N/A Snow Light Snow
4:04 PM 32.0 °F 23.6 °F 32.0 °F 100% 29.74 in 1.9 mi SW 10.4 mph - N/A Rain Rain
4:25 PM 32.0 °F 23.6 °F 32.0 °F 100% 29.71 in 1.1 mi SW 10.4 mph - N/A Rain Rain
5:00 PM 32.0 °F 24.8 °F 32.0 °F 100% 29.74 in 2.8 mi SW 8.1 mph - N/A Rain Rain
5:43 PM 33.8 °F 26.4 °F 33.8 °F 100% 29.74 in 4.3 mi WSW 9.2 mph - N/A Rain Rain
6:00 PM 33.8 °F 27.0 °F 33.8 °F 100% 29.74 in 6.2 mi WSW 8.1 mph - N/A   Mostly Cloudy
7:00 PM 35.6 °F 26.6 °F 33.8 °F 93% 29.74 in 6.2 mi West 13.8 mph - N/A Rain , Snow Light Rain
8:00 PM 37.4 °F 28.9 °F 33.8 °F 87% 29.77 in 6.2 mi West 13.8 mph - N/A   Mostly Cloudy
9:00 PM 37.4 °F 28.5 °F 33.8 °F 87% 29.77 in 6.2 mi West 15.0 mph - N/A   Mostly Cloudy
10:00 PM 37.4 °F 29.3 °F 33.8 °F 87% 29.80 in 6.2 mi West 12.7 mph - N/A   Mostly Cloudy
11:00 PM 37.4 °F 29.8 °F 33.8 °F 87% 29.77 in - West 11.5 mph - N/A   Clear